Simultaneous Nadir Overpasses (SNOs) Predictions

Prediction of SNOs between METOP-B and TERRA Satellite Orbit:

Table of predicted SNOs for the next 14.0 days since TLE Epoch: 7/2/2022
Index Date (METOP-B) Time (METOP-B) Lat,Lon (METOP-B) SZA (METOP-B ) Date (TERRA) Time (TERRA) Lat,Lon (TERRA) SZA (TERRA ) Distance(km) Time Diff (sec)
1 07/03/2022 21:24:52 81.16,-100.64 60.38 07/03/2022 21:25:10 81.16,-100.65 60.38 0.52 18
2 07/03/2022 22:15:32 -81.18, 67.15 119.57 07/03/2022 22:14:36 -81.18, 67.25 119.58 1.63 56
3 07/06/2022 16:59:14 81.17, -34.13 60.64 07/06/2022 16:59:19 81.16, -34.24 60.62 2.01 5
4 07/06/2022 17:49:54 -81.18, 133.68 119.30 07/06/2022 17:48:45 -81.18, 133.69 119.33 0.53 69
5 07/09/2022 11:42:57 -81.15,-135.46 119.12 07/09/2022 11:44:02 -81.15,-135.54 119.10 1.39 65
6 07/09/2022 12:33:36 81.17, 32.34 60.95 07/09/2022 12:33:27 81.18, 32.48 60.97 2.66 9
7 07/12/2022 07:17:19 -81.14, -69.37 118.80 07/12/2022 07:18:10 -81.14, -69.21 118.76 2.76 51
8 07/12/2022 08:07:57 81.17, 98.78 61.31 07/12/2022 08:07:35 81.17, 98.79 61.30 0.27 22
9 07/15/2022 02:51:40 -81.16, -2.56 118.34 07/15/2022 02:52:18 -81.16, -2.58 118.33 0.26 38



Historial Predications of SNOs between METOP-B and TERRA
